GW0835 Weather Reports


time (UTC)temp
C
wind
direction
speed
KPH
gust
KPH
rain 1hr
cm
rain 24hr
cm
rain mn
cm
humidity
%
barometer
mb
20260506163106 23 242 8.0 20.9 0.00 0.00 0.00 47 1005.9
20260506161612 23 237 8.0 22.5 0.00 0.00 0.00 48 1005.9
20260506160108 23 220 6.4 16.1 0.00 0.00 0.00 48 1005.9
20260506154554 23 235 6.4 17.7 0.00 0.00 0.00 47 1005.9
20260506153056 23 253 14.5 22.5 0.00 0.00 0.00 45 1006.1
20260506151551 24 211 12.9 25.7 0.00 0.00 0.00 45 1006.1
20260506150052 24 264 14.5 27.4 0.00 0.00 0.00 44 1006.1
20260506144552 24 248 17.7 25.7 0.00 0.00 0.00 45 1006.1
20260506143050 23 213 14.5 32.2 0.00 0.00 0.00 46 1006.2
20260506141556 24 259 12.9 30.6 0.00 0.00 0.00 45 1006.0
20260506140100 23 275 14.5 27.4 0.00 0.00 0.00 48 1006.0
20260506134558 24 268 12.9 32.2 0.00 0.00 0.00 46 1005.9
20260506133049 23 225 17.7 35.4 0.00 0.00 0.00 47 1005.9
20260506131601 23 238 19.3 35.4 0.00 0.00 0.00 46 1005.9
20260506130112 23 181 16.1 35.4 0.00 0.00 0.00 48 1005.9
20260506124558 23 221 16.1 33.8 0.00 0.00 0.00 48 1006.0
20260506123051 23 221 16.1 29.0 0.00 0.00 0.00 47 1005.9
20260506121550 23 209 16.1 27.4 0.00 0.00 0.00 46 1006.0
20260506120049 23 226 16.1 30.6 0.00 0.00 0.00 45 1006.0
20260506114550 24 269 14.5 30.6 0.00 0.00 0.00 43 1005.8
20260506113056 24 173 16.1 33.8 0.00 0.00 0.00 42 1005.7
20260506111552 23 211 16.1 33.8 0.00 0.00 0.00 44 1005.6
20260506110056 24 258 14.5 37.0 0.00 0.00 0.00 42 1005.6
20260506104556 24 163 14.5 35.4 0.00 0.00 0.00 42 1005.6
20260506103057 24 215 19.3 29.0 0.00 0.00 0.00 42 1005.8
20260506101600 23 244 14.5 27.4 0.00 0.00 0.00 43 1005.9
20260506100114 23 254 14.5 25.7 0.00 0.00 0.00 41 1005.8
20260506094553 23 201 9.7 25.7 0.00 0.00 0.00 43 1006.0
20260506093053 22 204 11.3 29.0 0.00 0.00 0.00 42 1006.1
20260506091551 22 196 12.9 25.7 0.00 0.00 0.00 41 1006.2
20260506090107 22 167 11.3 17.7 0.00 0.00 0.00 42 1006.0
20260506084621 22 177 11.3 24.1 0.00 0.00 0.00 41 1006.0
20260506083051 22 213 12.9 20.9 0.00 0.00 0.00 42 1005.9
20260506081557 21 203 11.3 20.9 0.00 0.00 0.00 44 1006.1
20260506073056 20 242 11.3 17.7 0.00 0.00 0.00 47 1006.3
20260506071552 20 209 9.7 19.3 0.00 0.00 0.00 47 1006.0
20260506061551 19 158 9.7 17.7 0.00 0.00 0.00 48 1006.3
20260506044704 15 171 1.6 8.0 0.00 0.00 0.00 60 1006.7
20260506043050 14 111 0.0 6.4 0.00 0.00 0.00 63 1006.8
20260506041602 13 126 1.6 9.7 0.00 0.00 0.00 65 1007.0
20260506040050 12 146 3.2 11.3 0.00 0.00 0.00 69 1006.9
20260506034624 10 0 0.0 3.2 0.00 0.00 0.00 72 1006.7
20260506033049 10 135 1.6 4.8 0.00 0.00 0.00 72 1006.6
20260506031553 10 108 1.6 4.8 0.00 0.00 0.00 73 1006.6
20260506030053 10 108 3.2 4.8 0.00 0.00 0.00 72 1006.8
20260506024552 10 108 1.6 4.8 0.00 0.00 0.00 72 1006.8
20260506023111 10 120 3.2 6.4 0.00 0.00 0.00 72 1006.8
20260506021552 10 132 1.6 4.8 0.00 0.00 0.00 72 1006.9
20260506020056 11 132 1.6 4.8 0.00 0.00 0.00 71 1006.9
20260506014555 11 132 0.0 4.8 0.00 0.00 0.00 68 1007.1
20260506013053 11 116 3.2 6.4 0.00 0.00 0.00 69 1007.0
20260506011608 11 71 3.2 4.8 0.00 0.00 0.00 70 1006.8
20260506010100 11 71 3.2 4.8 0.00 0.00 0.00 68 1006.8
20260506004624 12 146 1.6 4.8 0.00 0.00 0.00 63 1007.0
20260506003104 13 0 1.6 4.8 0.00 0.00 0.00 61 1006.8
20260506001555 13 199 3.2 4.8 0.00 0.00 0.00 59 1007.0
20260506000058 14 0 0.0 0.0 0.00 0.00 0.00 58 1007.0
20260505234617 14 0 0.0 0.0 0.00 0.00 0.00 58 1006.9
20260505233051 15 274 0.0 4.8 0.00 0.00 0.00 57 1006.8
20260505231556 14 34 1.6 4.8 0.00 0.00 0.00 58 1006.7
20260505230051 15 83 1.6 3.2 0.00 0.00 0.00 55 1006.6
20260505224550 16 0 0.0 4.8 0.00 0.00 0.00 51 1006.6
20260505223048 17 157 4.8 11.3 0.00 0.00 0.00 48 1006.6
20260505221551 18 160 11.3 19.3 0.00 0.00 0.00 47 1006.6
20260505220105 18 151 9.7 19.3 0.00 0.00 0.00 46 1006.8
20260505214602 18 136 9.7 17.7 0.00 0.00 0.00 46 1006.7
20260505213101 18 162 11.3 17.7 0.00 0.00 0.00 45 1006.7
20260505211559 18 171 9.7 17.7 0.00 0.00 0.00 44 1006.7
20260505210053 18 170 8.0 17.7 0.00 0.00 0.00 44 1006.6
20260505204609 18 167 6.4 14.5 0.00 0.00 0.00 43 1006.6
20260505203054 18 147 6.4 14.5 0.00 0.00 0.00 41 1006.5
20260505201602 19 172 4.8 14.5 0.00 0.00 0.00 39 1006.5
20260505200054 19 146 4.8 11.3 0.00 0.00 0.00 38 1006.6
20260505194556 19 157 4.8 12.9 0.00 0.00 0.00 39 1006.5
20260505193058 19 138 6.4 12.9 0.00 0.00 0.00 38 1006.6
20260505191558 19 146 3.2 8.0 0.00 0.00 0.00 38 1006.8
20260505190054 20 124 4.8 9.7 0.00 0.00 0.00 38 1006.6
20260505184558 20 116 3.2 8.0 0.00 0.00 0.00 36 1006.7
20260505183054 20 141 3.2 6.4 0.00 0.00 0.00 36 1006.7
20260505181551 21 142 3.2 8.0 0.00 0.00 0.00 35 1006.7
20260505180056 21 144 3.2 8.0 0.00 0.00 0.00 35 1006.7
20260505174607 22 143 3.2 8.0 0.00 0.00 0.00 34 1006.6
20260505173053 23 144 3.2 8.0 0.00 0.00 0.00 32 1006.7
20260505171549 23 162 4.8 9.7 0.00 0.00 0.00 30 1006.6
20260505170123 23 173 6.4 11.3 0.00 0.00 0.00 29 1006.6
20260505164551 23 173 1.6 11.3 0.00 0.00 0.00 29 1006.7